Roseau, MN

9:27 PM CDT on September 30, 2016 (GMT -0500)
Roseau Municipal-Billberg

Weather History for KROX - July, 2013

Change the Weather History Date:

Monday, July 1, 2013

  Actual Average Record
Temperature  
Mean Temperature 70 °F -  
Max Temperature 84 °F 76 °F 89 °F (1970)
Min Temperature 57 °F 53 °F 37 °F (1982)
Cooling Degree Days 6    
Growing Degree Days 20 (Base 50)    
Moisture  
Dew Point 56 °F    
Average Humidity 61    
Maximum Humidity 88    
Minimum Humidity 32    
Precipitation  
Precipitation 0.00 in - - ()
Sea Level Pressure  
Sea Level Pressure 30.20 in    
Wind  
Wind Speed 1 mph (West)    
Max Wind Speed 7 mph    
Max Gust Speed -    
Visibility 9 miles    
Events      
Averages and records for this station are not official NWS values.
T = Trace of Precipitation, MM = Missing Value Source: NWS Daily Summary

Daily Weather History Graph

Daily Weather History Graph

Search for Another Location

Airport or City:

Trip Planner

Search our weather history database for the weather conditions in past years. The results will help you decide how hot, cold, wet, or windy it might be!

Date:

Astronomy

Jul. 01, 2013 Rise Set
Actual Time 5:23 AM CDT 9:29 PM CDT
Civil Twilight 4:41 AM CDT 10:11 PM CDT
Nautical Twilight 3:41 AM CDT 11:11 PM CDT
Astronomical Twilight 1:39 AM CDT 1:07 AM CDT
Moon 1:14 AM CDT 3:28 PM CDT
Length of Visible Light 17h 30m
Length of Day
16h 06m
Waning Crescent, 35% of the Moon is Illuminated
Jul 1
Waning Crescent
Jul 8
New
Jul 15
First Quarter
Jul 22
Full
Jul 29
Last Quarter

Hourly Weather History & Observations

Time (CDT) Temp. Heat Index Dew Point Humidity Pressure Visibility Wind Dir Wind Speed Gust Speed Precip Events Conditions
12:14 AM 64.4 °F - 57.2 °F 77% 30.19 in 10.0 mi Calm Calm - N/A   Clear
12:34 AM 68.0 °F - 57.2 °F 68% 30.19 in 10.0 mi NW 3.5 mph - N/A   Clear
12:54 AM 66.2 °F - 57.2 °F 73% 30.19 in 10.0 mi Calm Calm - N/A   Clear
1:14 AM 66.2 °F - 57.2 °F 73% 30.19 in 10.0 mi Calm Calm - N/A   Clear
1:34 AM 66.2 °F - 57.2 °F 73% 30.19 in 10.0 mi Calm Calm - N/A   Scattered Clouds
1:55 AM 66.2 °F - 57.2 °F 73% 30.20 in 10.0 mi Calm Calm - N/A   Scattered Clouds
2:14 AM 64.4 °F - 55.4 °F 73% 30.20 in 10.0 mi NNW 3.5 mph - N/A   Clear
2:34 AM 64.4 °F - 55.4 °F 73% 30.20 in 10.0 mi Calm Calm - N/A   Scattered Clouds
2:54 AM 64.4 °F - 55.4 °F 73% 30.20 in 10.0 mi Calm Calm - N/A   Scattered Clouds
3:14 AM 60.8 °F - 55.4 °F 82% 30.20 in 10.0 mi Calm Calm - N/A   Scattered Clouds
3:34 AM 60.8 °F - 55.4 °F 82% 30.21 in 10.0 mi Calm Calm - N/A   Clear
3:54 AM 60.8 °F - 55.4 °F 82% 30.21 in 7.0 mi Calm Calm - N/A   Clear
4:14 AM 59.0 °F - 53.6 °F 82% 30.21 in 7.0 mi Calm Calm - N/A   Clear
4:34 AM 57.2 °F - 53.6 °F 88% 30.21 in 7.0 mi Calm Calm - N/A   Clear
4:54 AM 59.0 °F - 53.6 °F 82% 30.21 in 10.0 mi Calm Calm - N/A   Clear
5:14 AM 60.8 °F - 53.6 °F 77% 30.21 in 10.0 mi Calm Calm - N/A   Clear
5:34 AM 59.0 °F - 53.6 °F 82% 30.22 in 7.0 mi Calm Calm - N/A   Clear
5:55 AM 57.2 °F - 51.8 °F 82% 30.22 in 7.0 mi Calm Calm - N/A   Clear
6:14 AM 57.2 °F - 51.8 °F 82% 30.22 in 7.0 mi Calm Calm - N/A   Clear
6:35 AM 57.2 °F - 53.6 °F 88% 30.23 in 7.0 mi Calm Calm - N/A   Clear
6:54 AM 59.0 °F - 53.6 °F 82% 30.23 in 7.0 mi Calm Calm - N/A   Clear
7:14 AM 60.8 °F - 55.4 °F 82% 30.24 in 7.0 mi Calm Calm - N/A   Clear
7:35 AM 62.6 °F - 57.2 °F 82% 30.23 in 7.0 mi Calm Calm - N/A   Clear
7:54 AM 62.6 °F - 57.2 °F 82% 30.23 in 7.0 mi Calm Calm - N/A   Clear
8:14 AM 64.4 °F - 59.0 °F 83% 30.24 in 7.0 mi Calm Calm - N/A   Clear
8:33 AM 66.2 °F - 60.8 °F 83% 30.24 in 10.0 mi Calm Calm - N/A   Clear
8:54 AM 68.0 °F - 62.6 °F 83% 30.24 in 10.0 mi Calm Calm - N/A   Clear
9:14 AM 69.8 °F - 62.6 °F 78% 30.24 in 10.0 mi Calm Calm - N/A   Clear
9:34 AM 71.6 °F - 64.4 °F 78% 30.24 in 10.0 mi Calm Calm - N/A   Clear
9:54 AM 73.4 °F - 64.4 °F 73% 30.24 in 10.0 mi Calm Calm - N/A   Clear
10:14 AM 75.2 °F - 64.4 °F 69% 30.24 in 10.0 mi Calm Calm - N/A   Clear
10:34 AM 77.0 °F - 64.4 °F 65% 30.24 in 10.0 mi Calm Calm - N/A   Clear
10:54 AM 78.8 °F - 57.2 °F 47% 30.24 in 10.0 mi Calm Calm - N/A   Clear
11:14 AM 78.8 °F - 57.2 °F 47% 30.24 in 10.0 mi Calm Calm - N/A   Clear
11:34 AM 80.6 °F 80.3 °F 53.6 °F 39% 30.24 in 10.0 mi Calm Calm - N/A   Clear
11:54 AM 80.6 °F - 51.8 °F 37% 30.24 in 10.0 mi Calm Calm - N/A   Clear
12:14 PM 80.6 °F - 48.2 °F 32% 30.23 in 10.0 mi Calm Calm - N/A   Clear
12:34 PM 80.6 °F 80.5 °F 55.4 °F 42% 30.23 in 10.0 mi Calm Calm - N/A   Scattered Clouds
12:54 PM 80.6 °F 80.3 °F 53.6 °F 39% 30.22 in 10.0 mi Calm Calm - N/A   Scattered Clouds
1:14 PM 82.4 °F 81.7 °F 55.4 °F 39% 30.22 in 10.0 mi SE 3.5 mph - N/A   Scattered Clouds
1:35 PM 80.6 °F 80.5 °F 55.4 °F 42% 30.22 in 10.0 mi Calm Calm - N/A   Scattered Clouds
1:54 PM 80.6 °F - 51.8 °F 37% 30.21 in 10.0 mi Calm Calm - N/A   Scattered Clouds
2:14 PM 82.4 °F 81.4 °F 53.6 °F 37% 30.21 in 10.0 mi Calm Calm - N/A   Clear
2:34 PM 82.4 °F 82.0 °F 57.2 °F 42% 30.20 in 10.0 mi SW 3.5 mph - N/A   Scattered Clouds
2:54 PM 80.6 °F - 51.8 °F 37% 30.20 in 10.0 mi Calm Calm - N/A   Scattered Clouds
3:15 PM 82.4 °F 81.7 °F 55.4 °F 39% 30.20 in 10.0 mi West 5.8 mph - N/A   Scattered Clouds
3:34 PM 82.4 °F 81.4 °F 53.6 °F 37% 30.19 in 10.0 mi Calm Calm - N/A   Scattered Clouds
3:54 PM 84.2 °F - 51.8 °F 33% 30.19 in 10.0 mi Calm Calm - N/A   Clear
4:15 PM 82.4 °F 81.4 °F 53.6 °F 37% 30.18 in 10.0 mi WNW 4.6 mph - N/A   Scattered Clouds
4:34 PM 82.4 °F 81.4 °F 53.6 °F 37% 30.18 in 10.0 mi WSW 6.9 mph - N/A   Clear
4:54 PM 82.4 °F 81.4 °F 53.6 °F 37% 30.18 in 10.0 mi WSW 5.8 mph - N/A   Clear
5:15 PM 82.4 °F 81.4 °F 53.6 °F 37% 30.18 in 10.0 mi WNW 5.8 mph - N/A   Clear
5:34 PM 84.2 °F 82.8 °F 53.6 °F 35% 30.18 in 10.0 mi Calm Calm - N/A   Clear
5:55 PM 82.4 °F 81.4 °F 53.6 °F 37% 30.18 in 10.0 mi West 4.6 mph - N/A   Clear
6:14 PM 82.4 °F 81.4 °F 53.6 °F 37% 30.18 in 10.0 mi West 5.8 mph - N/A   Clear
6:34 PM 82.4 °F 81.7 °F 55.4 °F 39% 30.17 in 10.0 mi WNW 6.9 mph - N/A   Clear
6:55 PM 80.6 °F 80.3 °F 53.6 °F 39% 30.17 in 10.0 mi West 5.8 mph - N/A   Clear
7:14 PM 80.6 °F 80.5 °F 55.4 °F 42% 30.17 in 10.0 mi West 5.8 mph - N/A   Clear
7:34 PM 80.6 °F 80.8 °F 57.2 °F 45% 30.17 in 10.0 mi West 4.6 mph - N/A   Clear
7:55 PM 78.8 °F - 59.0 °F 51% 30.16 in 10.0 mi WNW 3.5 mph - N/A   Clear
8:14 PM 78.8 °F - 59.0 °F 51% 30.17 in 10.0 mi West 4.6 mph - N/A   Clear
8:34 PM 77.0 °F - 59.0 °F 54% 30.17 in 10.0 mi West 5.8 mph - N/A   Clear
8:55 PM 75.2 °F - 59.0 °F 57% 30.16 in 10.0 mi West 4.6 mph - N/A   Clear
9:14 PM 73.4 °F - 59.0 °F 61% 30.16 in 10.0 mi West 3.5 mph - N/A   Clear
9:34 PM 73.4 °F - 59.0 °F 61% 30.16 in 10.0 mi West 4.6 mph - N/A   Clear
9:55 PM 71.6 °F - 60.8 °F 69% 30.16 in 10.0 mi West 4.6 mph - N/A   Clear
10:14 PM 71.6 °F - 59.0 °F 64% 30.17 in 10.0 mi West 3.5 mph - N/A   Clear
10:35 PM 69.8 °F - 59.0 °F 68% 30.17 in 10.0 mi Calm Calm - N/A   Clear
10:54 PM 66.2 °F - 57.2 °F 73% 30.17 in 10.0 mi Calm Calm - N/A   Clear
11:14 PM 64.4 °F - 57.2 °F 77% 30.16 in 7.0 mi Calm Calm - N/A   Clear
11:35 PM 64.4 °F - 57.2 °F 77% 30.16 in 7.0 mi Calm Calm - N/A   Clear
11:54 PM 64.4 °F - 57.2 °F 77% 30.16 in 10.0 mi Calm Calm - N/A   Clear